timestamp,surface_pressure_avg,surface_temp_avg,battery_voltage,lat,long
2023-08-30 00:09:00+00:00,351.0013,19.4,12.33,47.84626,-54.09684
2023-08-30 00:19:00+00:00,346.3329,19.4,12.33,47.84626,-54.09684
2023-08-30 00:29:00+00:00,338.8047,19.4,12.33,47.84626,-54.09684
2023-08-30 00:39:00+00:00,329.8713,19.4,12.33,47.84626,-54.09684
2023-08-30 00:49:00+00:00,322.0546,19.42,12.33,47.84626,-54.09684
2023-08-30 00:59:00+00:00,311.6431,19.49,12.33,47.84626,-54.09684
2023-08-30 01:09:00+00:00,302.8063,19.5,12.33,47.84626,-54.09684
2023-08-30 01:19:00+00:00,292.4313,19.5,12.33,47.84626,-54.09684
2023-08-30 01:29:00+00:00,282.8597,19.5,12.33,47.84626,-54.09684
2023-08-30 01:39:00+00:00,273.5764,19.54,12.33,47.84626,-54.09684
2023-08-30 01:49:00+00:00,265.3447,19.55,12.33,47.84626,-54.09684
2023-08-30 01:59:00+00:00,256.2631,19.56,12.33,47.84626,-54.09684
2023-08-30 02:09:00+00:00,248.6714,19.58,12.33,47.84626,-54.09684
2023-08-30 02:19:00+00:00,241.4364,19.58,12.33,47.84626,-54.09684
2023-08-30 02:29:00+00:00,231.6848,19.5,12.33,47.84626,-54.09684
2023-08-30 02:39:00+00:00,223.1264,19.5,12.33,47.84626,-54.09684
2023-08-30 02:49:00+00:00,217.5598,19.48,12.33,47.84626,-54.09684
2023-08-30 02:59:00+00:00,211.7415,19.5,12.33,47.84626,-54.09684
2023-08-30 03:09:00+00:00,202.7515,19.5,12.33,47.84626,-54.09684
2023-08-30 03:19:00+00:00,199.9598,19.5,12.33,47.84626,-54.09684
2023-08-30 03:29:00+00:00,196.2464,19.53,12.33,47.84626,-54.09684
2023-08-30 03:39:00+00:00,187.1865,19.6,12.33,47.84626,-54.09684
2023-08-30 03:49:00+00:00,183.4931,19.63,12.33,47.84626,-54.09684
2023-08-30 03:59:00+00:00,183.5365,19.69,12.33,47.84626,-54.09684
2023-08-30 04:09:00+00:00,177.9131,19.69,12.33,47.84626,-54.09684
2023-08-30 04:19:00+00:00,173.1364,19.69,12.25,47.84626,-54.09684
2023-08-30 04:29:00+00:00,176.0115,19.6,12.25,47.84626,-54.09684
2023-08-30 04:39:00+00:00,177.3665,19.6,12.25,47.84626,-54.09684
2023-08-30 04:49:00+00:00,175.3582,19.62,12.25,47.84626,-54.09684
2023-08-30 04:59:00+00:00,175.7715,19.69,12.25,47.84626,-54.09684
2023-08-30 05:09:00+00:00,176.1299,19.7,12.25,47.84626,-54.09684
2023-08-30 05:19:00+00:00,175.9448,19.7,12.25,47.84626,-54.09684
2023-08-30 05:29:00+00:00,179.4264,19.71,12.25,47.84626,-54.09684
2023-08-30 05:39:00+00:00,181.9248,19.73,12.25,47.84626,-54.09684
2023-08-30 05:49:00+00:00,183.6481,19.77,12.25,47.84626,-54.09684
2023-08-30 05:59:00+00:00,187.2781,19.79,12.25,47.84626,-54.09684
2023-08-30 06:09:00+00:00,191.5965,19.8,12.25,47.84626,-54.09684
2023-08-30 06:19:00+00:00,197.3648,19.8,12.25,47.84626,-54.09684
2023-08-30 06:29:00+00:00,199.3481,19.8,12.25,47.84626,-54.09684
2023-08-30 06:39:00+00:00,201.2448,19.8,12.25,47.84626,-54.09684
2023-08-30 06:49:00+00:00,210.2431,19.8,12.25,47.84626,-54.09684
2023-08-30 06:59:00+00:00,215.3498,19.77,12.25,47.84626,-54.09684
2023-08-30 07:09:00+00:00,215.2231,19.79,12.25,47.84626,-54.09684
2023-08-30 07:19:00+00:00,221.5681,19.79,12.25,47.84626,-54.09684
2023-08-30 07:29:00+00:00,228.7964,19.74,12.25,47.84626,-54.09684
2023-08-30 07:39:00+00:00,232.9998,19.7,12.25,47.84626,-54.09684
2023-08-30 07:49:00+00:00,238.0064,19.7,12.25,47.84626,-54.09684
2023-08-30 07:59:00+00:00,245.1131,19.7,12.25,47.84626,-54.09684
2023-08-30 08:09:00+00:00,249.7147,19.7,12.25,47.84626,-54.09684
2023-08-30 08:19:00+00:00,255.7931,19.7,12.25,47.84626,-54.09684
2023-08-30 08:29:00+00:00,264.1848,19.6,12.25,47.84626,-54.09684
2023-08-30 08:39:00+00:00,274.953,19.5,12.25,47.84626,-54.09684
2023-08-30 08:49:00+00:00,283.1714,19.5,12.25,47.84626,-54.09684
2023-08-30 08:59:00+00:00,290.0997,19.5,12.25,47.84626,-54.09684
2023-08-30 09:09:00+00:00,293.9613,19.57,12.25,47.84626,-54.09684
2023-08-30 09:19:00+00:00,301.7214,19.57,12.25,47.84626,-54.09684
2023-08-30 09:29:00+00:00,306.8347,19.5,12.25,47.84626,-54.09684
2023-08-30 09:39:00+00:00,310.9214,19.51,12.25,47.84626,-54.09684
2023-08-30 09:49:00+00:00,315.4296,19.53,12.25,47.84626,-54.09684
2023-08-30 09:59:00+00:00,324.2396,19.51,12.25,47.84626,-54.09684
2023-08-30 10:09:00+00:00,331.0347,19.5,12.25,47.84626,-54.09684
2023-08-30 10:19:00+00:00,334.5746,19.5,12.25,47.84626,-54.09684
2023-08-30 10:29:00+00:00,336.2197,19.5,12.25,47.84626,-54.09684
2023-08-30 10:39:00+00:00,339.5063,19.5,12.25,47.84626,-54.09684
2023-08-30 10:49:00+00:00,341.2146,19.5,12.25,47.84626,-54.09684
2023-08-30 10:59:00+00:00,339.283,19.5,12.25,47.84626,-54.09684
2023-08-30 11:09:00+00:00,337.3297,19.52,12.25,47.84626,-54.09684
2023-08-30 11:19:00+00:00,337.5113,19.53,12.41,47.84626,-54.09684
2023-08-30 11:29:00+00:00,339.55800000000005,19.54,12.41,47.84626,-54.09684
2023-08-30 11:39:00+00:00,335.4746,19.56,12.41,47.84626,-54.09684
2023-08-30 11:49:00+00:00,332.3663,19.6,12.41,47.84626,-54.09684
2023-08-30 11:59:00+00:00,335.2746,19.6,12.41,47.84626,-54.09684
2023-08-30 12:09:00+00:00,334.48800000000006,19.6,12.41,47.84626,-54.09684
2023-08-30 12:19:00+00:00,330.0597,19.48,12.41,47.84626,-54.09684
2023-08-30 12:29:00+00:00,325.5547,19.5,12.41,47.84626,-54.09684
2023-08-30 12:39:00+00:00,323.0046,19.5,12.41,47.84626,-54.09684
2023-08-30 12:49:00+00:00,314.6014,19.53,12.41,47.84626,-54.09684
2023-08-30 12:59:00+00:00,308.6947,19.5,12.41,47.84626,-54.09684
2023-08-30 13:09:00+00:00,306.7497,19.51,12.41,47.84626,-54.09684
2023-08-30 13:19:00+00:00,298.158,19.54,12.57,47.84626,-54.09684
2023-08-30 13:29:00+00:00,285.5447,19.6,12.57,47.84626,-54.09684
2023-08-30 13:39:00+00:00,280.4664,19.6,12.57,47.84626,-54.09684
2023-08-30 13:49:00+00:00,271.4764,19.6,12.57,47.84626,-54.09684
2023-08-30 13:59:00+00:00,256.5681,19.6,12.57,47.84626,-54.09684
2023-08-30 14:09:00+00:00,246.0048,19.6,12.57,47.84626,-54.09684
2023-08-30 14:19:00+00:00,240.9164,19.6,12.49,47.84626,-54.09684
2023-08-30 14:29:00+00:00,231.2514,19.6,12.49,47.84626,-54.09684
2023-08-30 14:39:00+00:00,218.9164,19.6,12.49,47.84626,-54.09684
2023-08-30 14:49:00+00:00,213.0448,19.68,12.49,47.84626,-54.09684
2023-08-30 14:59:00+00:00,209.7748,19.69,12.49,47.84626,-54.09684
2023-08-30 15:09:00+00:00,204.3914,19.68,12.49,47.84626,-54.09684
2023-08-30 15:19:00+00:00,196.9265,19.64,12.49,47.84626,-54.09684
2023-08-30 15:29:00+00:00,193.0581,19.6,12.49,47.84626,-54.09684
2023-08-30 15:39:00+00:00,189.8631,19.6,12.49,47.84626,-54.09684
2023-08-30 15:49:00+00:00,183.1415,19.6,12.49,47.84626,-54.09684
2023-08-30 15:59:00+00:00,175.8165,19.6,12.49,47.84626,-54.09684
2023-08-30 16:09:00+00:00,172.5398,19.58,12.49,47.84626,-54.09684
2023-08-30 16:19:00+00:00,170.7014,19.52,12.41,47.84626,-54.09684
2023-08-30 16:29:00+00:00,164.7548,19.5,12.41,47.84626,-54.09684
2023-08-30 16:39:00+00:00,164.9631,19.5,12.41,47.84626,-54.09684
2023-08-30 16:49:00+00:00,167.7549,19.5,12.41,47.84626,-54.09684
2023-08-30 16:59:00+00:00,164.2598,19.5,12.41,47.84626,-54.09684
2023-08-30 17:09:00+00:00,164.3199,19.5,12.41,47.84626,-54.09684
2023-08-30 17:19:00+00:00,166.4481,19.5,12.41,47.84626,-54.09684
2023-08-30 17:29:00+00:00,167.0815,19.48,12.41,47.84626,-54.09684
2023-08-30 17:39:00+00:00,170.4948,19.5,12.41,47.84626,-54.09684
2023-08-30 17:49:00+00:00,175.5898,19.41,12.41,47.84626,-54.09684
2023-08-30 17:59:00+00:00,180.9998,19.4,12.41,47.84626,-54.09684
2023-08-30 18:09:00+00:00,187.1998,19.4,12.41,47.84626,-54.09684
2023-08-30 18:19:00+00:00,191.6981,19.4,12.33,47.84626,-54.09684
2023-08-30 18:29:00+00:00,194.2365,19.49,12.33,47.84626,-54.09684
2023-08-30 18:39:00+00:00,200.4681,19.5,12.33,47.84626,-54.09684
2023-08-30 18:49:00+00:00,206.4414,19.56,12.33,47.84626,-54.09684
2023-08-30 18:59:00+00:00,211.3031,19.59,12.33,47.84626,-54.09684
2023-08-30 19:09:00+00:00,218.6548,19.6,12.33,47.84626,-54.09684
2023-08-30 19:19:00+00:00,223.3114,19.6,12.33,47.84626,-54.09684
2023-08-30 19:29:00+00:00,225.1698,19.6,12.33,47.84626,-54.09684
2023-08-30 19:39:00+00:00,235.6414,19.6,12.33,47.84626,-54.09684
2023-08-30 19:49:00+00:00,250.0364,19.6,12.33,47.84626,-54.09684
2023-08-30 19:59:00+00:00,253.9531,19.6,12.33,47.84626,-54.09684
2023-08-30 20:09:00+00:00,255.8914,19.6,12.33,47.84626,-54.09684
2023-08-30 20:19:01+00:00,262.7164,19.6,12.25,47.84626,-54.09684
2023-08-30 20:29:01+00:00,271.2414,19.6,12.25,47.84626,-54.09684
2023-08-30 20:39:01+00:00,277.9447,19.6,12.25,47.84626,-54.09684
2023-08-30 20:49:01+00:00,289.543,19.48,12.25,47.84626,-54.09684
2023-08-30 20:59:01+00:00,307.5314,19.49,12.25,47.84626,-54.09684
2023-08-30 21:09:01+00:00,319.4414,19.6,12.25,47.84626,-54.09684
2023-08-30 21:19:01+00:00,326.2113,19.5,12.25,47.84626,-54.09684
2023-08-30 21:29:01+00:00,329.2463,19.3,12.25,47.84626,-54.09684
2023-08-30 21:39:01+00:00,339.9313,19.4,12.25,47.84626,-54.09684
2023-08-30 21:49:01+00:00,349.2213,19.39,12.25,47.84626,-54.09684
2023-08-30 21:59:01+00:00,354.6846,19.25,12.25,47.84626,-54.09684
2023-08-30 22:09:01+00:00,356.8896,19.4,12.25,47.84626,-54.09684
2023-08-30 22:19:01+00:00,370.5729,19.4,12.25,47.84626,-54.09684
2023-08-30 22:29:01+00:00,385.0095,19.3,12.25,47.84626,-54.09684
2023-08-30 22:39:01+00:00,383.2146,19.3,12.25,47.84626,-54.09684
2023-08-30 22:49:01+00:00,381.8579,19.39,12.25,47.84626,-54.09684
2023-08-30 22:59:01+00:00,397.4996,19.3,12.25,47.84626,-54.09684
2023-08-30 23:09:01+00:00,403.7796,19.29,12.25,47.84626,-54.09684
2023-08-30 23:19:01+00:00,398.2595,19.4,12.25,47.84626,-54.09684
2023-08-30 23:29:01+00:00,399.0729,19.3,12.25,47.84626,-54.09684
2023-08-30 23:39:01+00:00,404.4913,19.2,12.25,47.84626,-54.09684
2023-08-30 23:49:01+00:00,402.4329,19.33,12.25,47.84626,-54.09684
2023-08-30 23:59:01+00:00,393.9612,19.3,12.25,47.84626,-54.09684
